Location: Tuttlingen
(47.9853°N, 8.8165°E)
Time: 22:58:24
(UTC+01:00)

ISS - Pass Details

Date: 04 January 2018
Orbit: 402 x 407 km, 51.6° (Epoch: 18 January)

Event Time Altitude Azimuth Distance (km) Brightness Sun altitude
Exits shadow 05:20:59 17° 67° (ENE) 1,120 -1.0 -28.0°
Drops below altitude 10° 05:21:51 10° 67° (ENE) 1,470 -0.2 -27.8°
Sets 05:23:56 0° 68° (ENE) 2,335 1.0 -27.5°
